Sigfox identifier Datetime Temperature Humidity SNR
003BCCC0 2018-10-09 08:45:48 21.3 38 21.6
003BCCC0 2018-10-09 07:38:42 21.3 37 21.5
003BCCC0 2018-10-09 06:31:41 21.3 37 21.3
003BCCC0 2018-10-09 05:24:39 21.3 37 21.4
003BCCC0 2018-10-09 02:03:27 21.3 37 21.4
003BCCC0 2018-10-09 00:56:23 21.3 37 21.4
003BCCC0 2018-10-08 23:49:24 21.3 37 21.2
003BCCC0 2018-10-08 22:42:25 21.4 36 21.1
003BCCC0 2018-10-08 21:35:23 21.4 36 20.8
003BCCC0 2018-10-08 20:28:22 21.4 36 20.7
003BCCC0 2018-10-08 19:21:22 21.4 36 20.6
003BCCC0 2018-10-08 18:14:22 21.5 36 18.7
003BCCC0 2018-10-08 17:07:25 21.4 36 18.7
003BCCC0 2018-10-08 16:00:28 21.4 36 18.6
003BCCC0 2018-10-08 14:53:31 21.3 36 18.6
003BCCC0 2018-10-08 13:46:32 21.3 36 18.8
003BCCC0 2018-10-08 11:32:36 21.2 36 18.8
003BCCC0 2018-10-08 10:25:33 21 36 18.9
003BCCC0 2018-10-08 09:18:31 21 36 19.1
003BCCC0 2018-10-08 08:11:32 21 36 18.5
003BCCC0 2018-10-08 07:04:36 21 36 18.5
003BCCC0 2018-10-08 05:57:43 21 36 18.3
003BCCC0 2018-10-08 04:50:50 21 36 18.2
003BCCC0 2018-10-08 03:43:56 21 37 18.2
003BCCC0 2018-10-08 02:37:00 21 37 18.2
003BCCC0 2018-10-08 01:30:01 21 37 18
003BCCC0 2018-10-08 00:23:05 21 37 17.6
003BCCC0 2018-10-07 23:16:15 21 37 17.9
003BCCC0 2018-10-07 22:09:17 21 37 17.9
003BCCC0 2018-10-07 21:02:21 21 38 17.5
003BCCC0 2018-10-07 19:55:22 21 38 17.2
003BCCC0 2018-10-07 18:48:21 21 38 17.2
003BCCC0 2018-10-07 17:41:21 21.1 38 17
003BCCC0 2018-10-07 16:34:24 21.1 38 17
003BCCC0 2018-10-07 15:27:25 21 38 17.1
003BCCC0 2018-10-07 14:20:26 21.1 38 16.9
003BCCC0 2018-10-07 13:13:31 21.1 38 17.1
003BCCC0 2018-10-07 12:06:32 21.1 38 17.6
003BCCC0 2018-10-07 10:59:38 21.1 38 17.6
003BCCC0 2018-10-07 09:52:36 21.2 38 17.1
003BCCC0 2018-10-07 08:45:39 21.2 38 16.9
003BCCC0 2018-10-07 07:38:37 21.2 38 17.2
003BCCC0 2018-10-07 06:31:38 21.2 38 19.6
003BCCC0 2018-10-07 05:24:39 21.2 38 19.8
003BCCC0 2018-10-07 04:17:38 21.2 38 19.9
003BCCC0 2018-10-07 03:10:42 21.2 38 19.7
003BCCC0 2018-10-07 02:03:41 21.2 38 19.8
003BCCC0 2018-10-07 00:56:35 21.3 39 19.8
003BCCC0 2018-10-06 23:49:34 21.3 39 19.7
003BCCC0 2018-10-06 22:42:36 21.2 39 19.7
003BCCC0 2018-10-06 21:35:35 21.3 39 19.6
003BCCC0 2018-10-06 20:28:36 21.3 39 19.8
003BCCC0 2018-10-06 19:21:40 21.3 39 19.5
003BCCC0 2018-10-06 18:14:41 21.3 39 19.5
003BCCC0 2018-10-06 17:07:44 21.3 39 19.6
003BCCC0 2018-10-06 16:00:43 21.3 39 19.6
003BCCC0 2018-10-06 14:53:46 21.3 39 19.6
003BCCC0 2018-10-06 13:46:47 21.3 39 19.6
003BCCC0 2018-10-06 12:39:44 21.3 39 19.6
003BCCC0 2018-10-06 11:32:41 21.4 39 19.6
003BCCC0 2018-10-06 10:25:40 21.4 39 19.7
003BCCC0 2018-10-06 09:18:39 21.4 39 19.6
003BCCC0 2018-10-06 08:11:39 21.4 39 19.2
003BCCC0 2018-10-06 07:04:39 21.4 39 19.2
003BCCC0 2018-10-06 05:57:40 21.5 39 19.2
003BCCC0 2018-10-06 04:50:37 21.5 39 19.1
003BCCC0 2018-10-06 03:43:36 21.5 40 18.8
003BCCC0 2018-10-06 02:36:36 21.5 40 15.6
003BCCC0 2018-10-06 01:29:39 21.5 40 14.4
003BCCC0 2018-10-06 00:22:43 21.5 40 14.3
003BCCC0 2018-10-05 23:15:50 21.5 40 14.9
003BCCC0 2018-10-05 22:08:50 21.6 40 14.4
003BCCC0 2018-10-05 21:01:54 21.6 40 14.1
003BCCC0 2018-10-05 19:54:53 21.7 40 13.8
003BCCC0 2018-10-05 18:47:57 21.7 40 13.6
003BCCC0 2018-10-05 17:41:06 21.7 40 13.9
003BCCC0 2018-10-05 16:34:05 21.7 40 13.7
003BCCC0 2018-10-05 15:27:07 21.7 40 13.9
003BCCC0 2018-10-05 14:20:09 21.5 40 13.9
003BCCC0 2018-10-05 13:13:10 21.4 41 13.9
003BCCC0 2018-10-05 12:06:09 21.3 42 14.4
003BCCC0 2018-10-05 10:59:13 21 47 14.6
003BCCC0 2018-10-05 09:52:15 20.6 42 14.5
003BCCC0 2018-10-05 08:45:19 20.6 39 14.6
003BCCC0 2018-10-05 07:38:24 20.4 33 14.6
003BCCC0 2018-10-05 06:31:29 20.5 29 15
003BCCC0 2018-10-05 05:24:36 20.6 29 15.4
003BCCC0 2018-10-05 04:17:33 20.6 29 18.7
003BCCC0 2018-10-05 03:10:37 20.6 29 18.7
003BCCC0 2018-10-05 02:03:36 20.6 29 20.6
003BCCC0 2018-10-04 23:49:41 20.8 30 20.8
003BCCC0 2018-10-04 22:42:37 20.8 29 20.8
003BCCC0 2018-10-04 18:14:26 21 26 20.8
003BCCC0 2018-10-04 17:07:19 21.2 27 20.9
003BCCC0 2018-10-04 16:00:19 21 29 20.9
003BCCC0 2018-10-04 14:53:12 20.7 29 20.7
003BCCC0 2018-10-04 12:39:17 20.7 27 20.6
003BCCC0 2018-10-04 11:32:19 20.6 30 20.6
003BCCC0 2018-10-04 10:25:14 20.6 29 20.7
003BCCC0 2018-10-04 09:18:12 20.3 30 20.7
003BCCC0 2018-10-04 08:11:14 20.1 30 20.6
003BCCC0 2018-10-04 07:04:15 20.2 35 20.6
003BCCC0 2018-10-04 05:57:13 20.2 36 21.9
003BCCC0 2018-10-04 04:50:11 20.2 37 21.8
003BCCC0 2018-10-04 03:43:15 20.2 37 21.8
003BCCC0 2018-10-04 02:36:16 20.3 38 21.8
003BCCC0 2018-10-04 01:29:15 20.4 38 21.7
003BCCC0 2018-10-04 00:22:15 20.4 39 70.6
003BCCC0 2018-10-03 23:15:16 20.4 39 70.6
003BCCC0 2018-10-03 22:08:20 20.5 39 70.6
003BCCC0 2018-10-03 21:01:15 20.5 40 70.6
003BCCC0 2018-10-03 19:54:14 20.5 40 70.6
003BCCC0 2018-10-03 18:47:15 20.4 40 70.6
003BCCC0 2018-10-03 17:40:16 20.2 41 70.6
003BCCC0 2018-10-03 16:33:12 20.4 45 70.6
003BCCC0 2018-10-03 15:26:12 20.4 45 70.6
003BCCC0 2018-10-03 14:19:12 20.4 45 70.6
003BCCC0 2018-10-03 12:05:01 20.2 40 70.6
003BCCC0 2018-10-03 09:50:53 20.4 40 70.6
003BCCC0 2018-10-03 08:43:50 20 38 70.6
003BCCC0 2018-10-03 05:22:35 20.2 40 70.6
003BCCC0 2018-10-03 04:15:32 20.4 40 70.6
003BCCC0 2018-10-03 03:08:27 20.4 40 70.6
003BCCC0 2018-10-03 02:01:22 20.4 40 70.6
003BCCC0 2018-10-03 00:54:15 20.4 40 70.6
003BCCC0 2018-10-02 22:40:00 20.4 40 70.6
003BCCC0 2018-10-02 21:32:54 20.4 40 70.6
003BCCC0 2018-10-02 20:25:44 20.4 39 70.6
003BCCC0 2018-10-02 19:18:38 20.4 39 70.8
003BCCC0 2018-10-02 18:11:28 20.2 39 71
003BCCC0 2018-10-02 15:57:19 20.4 40 71.2
003BCCC0 2018-10-02 14:50:19 20.6 39 71.4
003BCCC0 2018-10-02 13:43:17 20.4 39 18.3
003BCCC0 2018-10-02 12:36:12 20.4 39 18.4
003BCCC0 2018-10-02 11:29:11 20.6 43 18.6
003BCCC0 2018-10-02 10:22:06 20.4 43 18.8
003BCCC0 2018-10-02 09:15:03 20.4 43 18.7
003BCCC0 2018-10-02 08:08:01 20.2 41 18.8
003BCCC0 2018-10-02 07:01:05 20.2 42 18.2
003BCCC0 2018-10-02 05:54:09 20.2 42 18.3
003BCCC0 2018-10-02 04:47:07 20.2 43 18.6
003BCCC0 2018-10-02 03:40:08 20.3 43 18.7
003BCCC0 2018-10-02 02:33:06 20.4 43 18.9
003BCCC0 2018-10-02 01:25:57 20.4 43 18.9
003BCCC0 2018-10-02 00:18:48 20.4 43 19.3
003BCCC0 2018-10-01 23:11:43 20.4 43 19.5
003BCCC0 2018-10-01 22:04:38 20.4 43 20.1
003BCCC0 2018-10-01 20:57:33 20.4 43 20.5
003BCCC0 2018-10-01 19:50:29 20.4 42 21.3
003BCCC0 2018-10-01 18:43:22 20.4 42 22
003BCCC0 2018-10-01 17:36:16 20.4 42 21.5
003BCCC0 2018-10-01 16:29:10 20.2 44 24.2
003BCCC0 2018-10-01 15:22:06 17.8 58 0